Hourly Data Report for October 03, 2017

All times are specified in Local Standard Time (LST). Add 1 hour to adjust for Daylight Saving Time where and when it is observed.

BRIER ISLAND
NOVA SCOTIA

44°17'09.000" N
66°20'48.000" W
15.80 m
8200604
71988
WVU

Download Data

Hourly Data (October 2017)
Hourly Data Report for October 3, 2017
Temp Definition
°C
Dew Point Temp Definition
°C
Rel Hum Definition
%
Wind Dir Definition
10's deg

Wind Spd Definition
km/h
Visibility Definition
km
Stn Press Definition
kPa
Hmdx Definition


Wind Chill Definition


Weather Definition


TIME
00:00 8.6 4.5 75 8 19   103.25     LegendNANA
01:00 8.5 5.0 79 7 17   103.29     LegendNANA
02:00 8.1 4.8 80 7 14   103.32     LegendNANA
03:00 7.8 4.8 81 3 6   103.37     LegendNANA
04:00 8.2 5.1 81 6 5   103.41     LegendNANA
05:00 8.2 5.7 84 8 3   103.47     LegendNANA
06:00 7.0 5.5 90 14 7   103.54     LegendNANA
07:00 8.2 6.7 90 14 7   103.59     LegendNANA
08:00 10.3 7.5 83 15 7   103.61     LegendNANA
09:00 11.5 6.0 69 7 4   103.62     LegendNANA
10:00 11.7 6.7 71 31 8   103.68     LegendNANA
11:00 12.1 5.4 64 29 7   103.62     LegendNANA
12:00 12.7 6.3 65 29 12   103.63     LegendNANA
13:00 12.9 6.0 63 27 9   103.54     LegendNANA
14:00
15:00
16:00 12.9 6.5 65 23 11   103.35     LegendNANA
17:00 11.7 5.9 68 23 12   103.33     LegendNANA
18:00 11.0 6.4 73 21 13   103.24     LegendNANA
19:00 11.3 7.1 75 22 14   103.19     LegendNANA
20:00 11.6 7.4 76 22 16   103.14     LegendNANA
21:00 12.1 8.3 78 22 16   103.09     LegendNANA
22:00 12.1 8.3 78 22 18   103.00     LegendNANA
23:00 12.0 8.8 80 23 13   102.98     LegendNANA

Notes on Data Quality.

Legend

  • E = Estimated
  • M = Missing
  • NA = Not Available
  • ‡ = Partner data that is not subject to review by the National Climate Archives
Date modified: